KE8CZD Weather Reports


time (UTC)temp
C
wind
direction
speed
KPH
gust
KPH
rain 1hr
cm
rain 24hr
cm
rain mn
cm
humidity
%
barometer
mb
20260506150044 9 276 1.6 16.1 0.00 0.00 0.00 47 1009.1
20260506145444 9 346 0.0 3.2 0.00 0.00 0.00 51 1009.1
20260506144844 9 269 1.6 11.3 0.00 0.00 0.00 51 1009.0
20260506144244 9 348 0.0 3.2 0.00 0.00 0.00 53 1008.8
20260506143644 9 326 0.0 3.2 0.00 0.00 0.00 54 1009.0
20260506143045 8 320 0.0 8.0 0.00 0.00 0.00 54 1009.1
20260506142444 8 316 1.6 8.0 0.00 0.00 0.00 55 1009.0
20260506141845 8 283 1.6 8.0 0.00 0.00 0.00 54 1009.0
20260506141244 8 30 0.0 8.0 0.00 0.00 0.00 54 1008.9
20260506140644 8 49 0.0 8.0 0.00 0.00 0.00 54 1008.7
20260506140044 9 40 0.0 8.0 0.00 0.00 0.00 54 1008.7
20260506135446 8 10 0.0 3.2 0.00 0.00 0.00 55 1008.8
20260506134844 8 304 0.0 8.0 0.00 0.00 0.00 56 1008.6
20260506134244 8 327 0.0 3.2 0.00 0.00 0.00 57 1008.5
20260506133644 8 357 0.0 8.0 0.00 0.00 0.00 58 1008.5
20260506133044 8 37 1.6 11.3 0.00 0.00 0.00 59 1008.5
20260506132444 8 311 0.0 8.0 0.00 0.00 0.00 62 1008.4
20260506131844 8 63 0.0 8.0 0.00 0.00 0.00 63 1008.2
20260506131244 8 41 0.0 8.0 0.00 0.00 0.00 66 1008.2
20260506130646 7 17 1.6 11.3 0.00 0.00 0.00 68 1008.3
20260506130044 8 40 0.0 11.3 0.00 0.00 0.00 71 1008.2
20260506125444 7 13 0.0 3.2 0.00 0.00 0.00 73 1008.0
20260506124846 7 308 0.0 8.0 0.00 0.00 0.00 73 1007.8
20260506124244 7 289 0.0 3.2 0.00 0.00 0.00 73 1007.8
20260506123644 7 311 0.0 8.0 0.00 0.00 0.00 74 1007.9
20260506123044 7 21 0.0 8.0 0.00 0.00 0.00 74 1007.9
20260506122444 7 322 0.0 3.2 0.00 0.00 0.00 75 1007.7
20260506121845 7 0 0.0 0.0 0.00 0.00 0.00 75
20260506121244 7 267 0.0 3.2 0.00 0.00 0.00 74 1007.7
20260506120644 7 273 0.0 3.2 0.00 0.00 0.00 73 1007.8
20260506120045 7 309 0.0 3.2 0.00 0.00 0.00 72 1007.8
20260506115445 7 353 0.0 3.2 0.00 0.00 0.00 72 1007.4
20260506114845 7 37 0.0 3.2 0.00 0.00 0.00 72 1007.3
20260506114244 7 44 0.0 3.2 0.00 0.00 0.00 74 1007.3
20260506113644 7 0 0.0 0.0 0.00 0.00 0.00 76 1007.3
20260506113045 6 0 0.0 0.0 0.00 0.00 0.00 76 1007.3
20260506112445 6 0 0.0 0.0 0.00 0.00 0.00 75 1007.3
20260506111844 6 0 0.0 0.0 0.00 0.00 0.00 74 1007.3
20260506111244 6 0 0.0 0.0 0.00 0.00 0.00 73 1007.1
20260506110644 6 0 0.0 0.0 0.00 0.00 0.00 73 1007.1
20260506110044 6 0 0.0 0.0 0.00 0.00 0.00 72 1007.0
20260506105444 6 0 0.0 0.0 0.00 0.00 0.00 70 1006.8
20260506104844 6 0 0.0 0.0 0.00 0.00 0.00 69 1006.7
20260506104244 7 0 0.0 0.0 0.00 0.00 0.00 69
20260506103644 7 0 0.0 0.0 0.00 0.00 0.00 68 1006.6
20260506103045 7 0 0.0 0.0 0.00 0.00 0.00 67 1006.6
20260506102444 7 0 0.0 0.0 0.00 0.00 0.00 65 1006.6
20260506101844 7 0 0.0 0.0 0.00 0.00 0.00 64 1006.7
20260506100645 7 296 0.0 3.2 0.00 0.00 0.00 62 1006.5
20260506100044 7 272 0.0 3.2 0.00 0.00 0.00 62 1006.2
20260506095444 7 316 0.0 3.2 0.00 0.00 0.00 61 1006.1
20260506094844 7 0 0.0 0.0 0.00 0.00 0.00 61 1005.9
20260506094244 7 0 0.0 0.0 0.00 0.00 0.00 61 1005.8
20260506093644 7 338 0.0 3.2 0.00 0.00 0.00 60 1005.8
20260506093044 7 0 0.0 0.0 0.00 0.00 0.00 59 1005.8
20260506092444 7 0 0.0 0.0 0.00 0.00 0.00 59 1005.9
20260506091844 7 287 0.0 3.2 0.00 0.00 0.00 58 1006.0
20260506091246 7 297 0.0 3.2 0.00 0.00 0.00 58 1005.8
20260506090644 7 0 0.0 0.0 0.00 0.00 0.00 57 1005.8
20260506090044 7 0 0.0 0.0 0.00 0.00 0.00 57 1005.7
20260506085444 7 0 0.0 0.0 0.00 0.00 0.00 56 1005.5
20260506084844 7 305 0.0 3.2 0.00 0.00 0.00 56 1005.7
20260506084244 8 0 0.0 0.0 0.00 0.00 0.00 55 1005.6
20260506083644 8 324 0.0 3.2 0.00 0.00 0.00 55 1005.7
20260506083044 8 0 0.0 0.0 0.00 0.00 0.00 55 1005.7
20260506082444 8 0 0.0 0.0 0.00 0.00 0.00 54 1005.6
20260506081844 8 39 0.0 3.2 0.00 0.00 0.00 54 1005.7
20260506080644 8 274 0.0 3.2 0.00 0.00 0.00 53 1005.8
20260506073044 8 284 0.0 3.2 0.00 0.00 0.00 51 1005.6
20260506072444 8 0 0.0 0.0 0.00 0.00 0.00 51 1005.5
20260506071844 8 279 0.0 3.2 0.00 0.00 0.00 51 1005.4
20260506071244 8 272 0.0 8.0 0.00 0.00 0.00 51 1005.5
20260506070644 8 0 0.0 0.0 0.00 0.00 0.00 51 1005.6
20260506062444 8 0 0.0 0.0 0.00 0.00 0.00 51 1005.7
20260506061844 8 270 0.0 8.0 0.00 0.00 0.00 51 1005.9
20260506061244 8 269 0.0 3.2 0.00 0.00 0.00 51 1005.9
20260506060645 8 280 0.0 3.2 0.00 0.00 0.00 51 1005.8
20260506050643 9 0 0.0 0.0 0.00 0.00 0.00 49 1005.7
20260506044844 9 269 0.0 3.2 0.00 0.00 0.00 48 1005.5
20260506044247 9 272 0.0 3.2 0.00 0.00 0.00 48 1005.4
20260506043644 9 270 0.0 3.2 0.00 0.00 0.00 48 1005.5
20260506043045 9 283 0.0 3.2 0.00 0.00 0.00 49 1005.5
20260506042444 9 287 0.0 3.2 0.00 0.00 0.00 48 1005.5
20260506041843 9 273 0.0 3.2 0.00 0.00 0.00 49 1005.6
20260506041244 9 0 0.0 0.0 0.00 0.00 0.00 49 1005.4
20260506040643 9 274 0.0 3.2 0.00 0.00 0.00 48 1005.4
20260506040044 9 280 0.0 3.2 0.00 0.00 0.00 48 1005.2
20260506035444 10 0 0.0 0.0 0.00 0.00 0.00 48 1005.5
20260506034844 10 0 0.0 0.0 0.00 0.00 0.00 47 1005.5
20260506034246 10 0 0.0 0.0 0.00 0.00 0.00 46 1005.5
20260506033644 10 0 0.0 0.0 0.00 0.00 0.00 46 1005.6
20260506033043 10 0 0.0 0.0 0.00 0.00 0.00 46 1005.7
20260506032444 10 0 0.0 0.0 0.00 0.00 0.00 46 1005.5
20260506031844 10 0 0.0 0.0 0.00 0.00 0.00 45 1005.7
20260506031243 10 0 0.0 0.0 0.00 0.00 0.00 45 1005.5
20260506030643 10 0 0.0 0.0 0.00 0.00 0.00 44 1005.5
20260506030044 10 0 0.0 0.0 0.00 0.00 0.00 44 1005.5
20260506025443 10 0 0.0 0.0 0.00 0.00 0.00 43 1005.6
20260506024843 10 271 0.0 3.2 0.00 0.00 0.00 43 1005.5
20260506024244 10 0 0.0 0.0 0.00 0.00 0.00 43 1005.7
20260506023643 10 268 0.0 3.2 0.00 0.00 0.00 43 1005.7
20260506023043 10 272 0.0 3.2 0.00 0.00 0.00 42 1005.4
20260506022443 10 269 0.0 3.2 0.00 0.00 0.00 41 1005.4
20260506021843 10 278 0.0 3.2 0.00 0.00 0.00 41 1005.5
20260506021244 10 249 0.0 3.2 0.00 0.00 0.00 42 1005.5
20260506020644 10 0 0.0 0.0 0.00 0.00 0.00 42 1005.6
20260506020044 10 0 0.0 0.0 0.00 0.00 0.00 42 1005.5
20260506014845 10 0 0.0 0.0 0.00 0.00 0.00 41 1005.1
20260506014245 10 265 0.0 3.2 0.00 0.00 0.00 39 1005.1
20260506013643 10 0 0.0 0.0 0.00 0.00 0.00 39 1005.1
20260506013044 10 0 0.0 0.0 0.00 0.00 0.00 38 1004.9
20260506012444 10 0 0.0 0.0 0.00 0.00 0.00 37 1004.9
20260506011843 10 279 0.0 3.2 0.00 0.00 0.00 35
20260506011243 10 281 0.0 3.2 0.00 0.00 0.00 35 1004.8
20260506010643 10 275 1.6 8.0 0.00 0.00 0.00 35 1004.7
20260506010044 10 280 0.0 3.2 0.00 0.00 0.00 35
20260506005443 11 306 0.0 3.2 0.00 0.00 0.00 35 1004.9
20260506004843 11 0 0.0 0.0 0.00 0.00 0.00 35 1004.8
20260506004243 11 309 0.0 3.2 0.00 0.00 0.00 33
20260506003644 11 269 0.0 3.2 0.00 0.00 0.00 33 1004.7
20260506003043 11 274 0.0 3.2 0.00 0.00 0.00 33 1004.7
20260506002443 11 294 0.0 3.2 0.00 0.00 0.00 33 1004.7
20260506001843 11 272 0.0 3.2 0.00 0.00 0.00 33
20260506001243 11 267 0.0 8.0 0.00 0.00 0.00 33 1004.6
20260506000644 11 275 1.6 8.0 0.00 0.00 0.00 33
20260506000046 11 272 1.6 8.0 0.00 0.00 0.00 34 1004.6
20260505235444 11 267 0.0 8.0 0.00 0.00 0.00 39 1004.2
20260505234845 11 270 1.6 11.3 0.00 0.00 0.00 42 1004.1
20260505234244 11 292 0.0 3.2 0.00 0.00 0.00 41 1004.1
20260505233644 11 276 0.0 8.0 0.00 0.00 0.00 41 1004.2
20260505233044 11 291 0.0 3.2 0.00 0.00 0.00 41 1004.0
20260505232445 11 295 0.0 3.2 0.00 0.00 0.00 39 1004.0
20260505231844 11 278 1.6 8.0 0.00 0.00 0.00 39 1004.0
20260505231245 11 289 0.0 8.0 0.00 0.00 0.00 39 1004.0
20260505230644 12 296 0.0 8.0 0.00 0.00 0.00 39 1004.1
20260505230045 12 275 0.0 8.0 0.00 0.00 0.00 39 1004.0
20260505225445 12 267 0.0 8.0 0.00 0.00 0.00 39 1004.1
20260505224845 12 294 0.0 8.0 0.00 0.00 0.00 40 1004.1
20260505224245 12 277 0.0 8.0 0.00 0.00 0.00 41 1004.2
20260505223644 12 278 0.0 8.0 0.00 0.00 0.00 42 1004.2
20260505223044 12 272 0.0 8.0 0.00 0.00 0.00 43
20260505222444 12 292 0.0 3.2 0.00 0.00 0.00 41 1004.2
20260505221844 12 273 0.0 8.0 0.00 0.00 0.00 41 1004.0
20260505221244 12 275 1.6 8.0 0.00 0.00 0.00 42 1004.1
20260505220644 12 297 0.0 8.0 0.00 0.00 0.00 44 1004.0
20260505220045 12 260 0.0 8.0 0.00 0.00 0.00 46 1004.0
20260505215444 12 307 1.6 11.3 0.00 0.00 0.00 49 1004.2
20260505214844 12 289 0.0 3.2 0.00 0.00 0.00 51 1004.1
20260505214244 12 235 0.0 8.0 0.00 0.00 0.00 52 1004.0
20260505213645 12 282 1.6 8.0 0.00 0.00 0.00 53 1004.0
20260505213045 12 283 0.0 8.0 0.00 0.00 0.00 53 1003.9
20260505212445 12 330 0.0 11.3 0.00 0.00 0.00 57 1003.9
20260505211845 12 274 1.6 11.3 0.00 0.00 0.00 60 1004.0
20260505211244 12 251 0.0 3.2 0.00 0.00 0.00 64 1004.1
20260505210644 12 276 0.0 3.2 0.00 0.00 0.00 66 1004.1
20260505210044 12 277 0.0 8.0 0.00 0.00 0.00 67 1004.1
20260505205444 12 0 0.0 0.0 0.00 0.00 0.00 67 1004.2
20260505204844 12 268 0.0 3.2 0.00 0.00 0.00 67 1004.2
20260505204244 12 270 0.0 8.0 0.00 0.00 0.00 67 1004.2
20260505203644 12 107 0.0 3.2 0.00 0.00 0.00 68 1004.2
20260505203044 12 286 0.0 8.0 0.00 0.00 0.00 68 1004.1
20260505202444 12 106 0.0 3.2 0.00 0.00 0.00 69 1004.1
20260505201844 12 208 0.0 8.0 0.00 0.00 0.00 68 1004.1
20260505201244 12 182 1.6 8.0 0.00 0.00 0.00 68 1004.0
20260505200645 12 251 0.0 3.2 0.00 0.00 0.00 69 1004.1
20260505200044 12 145 0.0 8.0 0.00 0.00 0.00 69 1004.2
20260505195444 11 272 1.6 11.3 0.00 0.00 0.00 70 1004.2
20260505194844 12 261 0.0 8.0 0.00 0.00 0.00 70 1004.3
20260505194245 11 285 0.0 8.0 0.00 0.00 0.00 71 1004.3
20260505193644 11 150 1.6 8.0 0.00 0.00 0.00 71 1004.3
20260505193045 11 163 0.0 3.2 0.00 0.00 0.00 71 1004.3
20260505192444 11 121 0.0 3.2 0.00 0.00 0.00 72 1004.4
20260505191845 11 199 0.0 8.0 0.00 0.00 0.00 72 1004.3
20260505191244 11 184 1.6 8.0 0.00 0.00 0.00 71 1004.4
20260505190644 12 224 1.6 8.0 0.00 0.00 0.00 70 1004.5
20260505190044 12 152 0.0 3.2 0.00 0.00 0.00 70 1004.4
20260505185444 12 117 0.0 3.2 0.00 0.00 0.00 68 1004.3
20260505184844 12 274 1.6 8.0 0.00 0.00 0.00 70 1004.1
20260505184245 12 183 1.6 8.0 0.00 0.00 0.00 70 1004.2
20260505183644 12 193 3.2 11.3 0.00 0.00 0.00 71 1003.9
20260505183046 12 182 0.0 8.0 0.00 0.00 0.00 71 1003.9
20260505182444 12 209 1.6 11.3 0.00 0.00 0.00 71 1003.7
20260505181844 12 286 1.6 11.3 0.00 0.00 0.00 71 1003.5
20260505181245 12 220 3.2 8.0 0.00 0.00 0.00 72 1003.6
20260505180644 12 177 3.2 8.0 0.00 0.00 0.00 72 1003.6
20260505180045 12 129 0.0 8.0 0.00 0.00 0.00 72 1003.6
20260505175445 12 193 0.0 3.2 0.00 0.00 0.00 72 1003.5
20260505174844 12 183 1.6 11.3 0.00 0.00 0.00 72 1003.4
20260505174245 12 147 1.6 11.3 0.00 0.00 0.00 72 1003.5
20260505173644 11 135 0.0 8.0 0.00 0.00 0.00 71 1003.6
20260505173044 11 206 0.0 8.0 0.00 0.00 0.00 70 1003.5
20260505172444 12 288 0.0 11.3 0.00 0.00 0.00 71 1003.3
20260505171844 11 14 0.0 3.2 0.00 0.00 0.00 72 1003.3
20260505171244 11 284 1.6 8.0 0.00 0.00 0.00 74 1003.5
20260505170645 11 194 1.6 8.0 0.00 0.00 0.00 77 1003.5
20260505170045 11 240 0.0 3.2 0.00 0.00 0.00 79 1003.7
20260505165444 11 86 0.0 8.0 0.00 0.00 0.00 79 1003.8
20260505164844 10 219 0.0 3.2 0.00 0.00 0.00 79 1003.9
20260505164244 11 284 0.0 8.0 0.00 0.00 0.00 80 1004.0
20260505163644 11 325 0.0 8.0 0.00 0.00 0.00 79 1004.1
20260505163044 10 0 0.0 0.0 0.00 0.00 0.00 78 1004.1
20260505162444 10 288 0.0 8.0 0.00 0.00 0.00 74 1004.0
20260505161844 11 268 0.0 3.2 0.00 0.00 0.00 73 1004.0
20260505161244 11 251 0.0 3.2 0.00 0.00 0.00 74 1004.1
20260505160645 11 214 0.0 3.2 0.00 0.00 0.00 72 1003.9
20260505153044 13 298 1.6 8.0 0.00 0.00 0.00 60 1003.4
20260505152444 13 290 1.6 8.0 0.00 0.00 0.00 59 1002.9
20260505151244 13 275 1.6 8.0 0.00 0.00 0.00 58 1002.5
20260505150644 13 275 0.0 8.0 0.00 0.00 0.00 57 1002.6